Regional Weather Roundup
Issued by NWS

Home | Current Version | Previous Version | Graphics & Text | Print | Product List | Glossary On
Versions: 1 2 3 4 5 6 7 8 9 10 11 12 13 14 15 16 17 18 19 20 21 22 23 24 25 26 27 28 29 30 31 32 33 34 35 36 37 38 39 40 41 42 43 44 45 46 47 48 49 50
000
ASUS45 KBOI 190210
RWRID
WEATHER ROUNDUP FOR IDAHO
NATIONAL WEATHER SERVICE BOISE ID
700 PM MST THU DEC 18 2014

NOTE: "FAIR" INDICATES FEW OR NO CLOUDS BELOW 12000 FEET
WITH NO SIGNIFICANT WEATHER AND/OR OBSTRUCTIONS TO VISIBILITY

IDZ012-014-190300-
SOUTHWEST IDAHO


CITY           SKY/WX    TMP DP  RH WIND       PRES   REMARKS
BOISE          CLOUDY    44  33  65 SE9       30.09R
CALDWELL       CLOUDY    43  28  56 E9        30.09F
MOUNTAIN HOME  CLOUDY    39  32  76 E12       30.09S WCI  32
$$

IDZ016-017-190300-
SOUTHCENTRAL IDAHO


CITY           SKY/WX    TMP DP  RH WIND       PRES   REMARKS
BURLEY         CLOUDY    34  28  79 CALM      30.11S
JEROME         CLOUDY    38  29  70 E6        30.12R WCI  33
TWIN FALLS     CLOUDY    40  27  59 S12       30.11R WCI  33
$$

IDZ019>023-190300-
SOUTHEAST IDAHO


CITY           SKY/WX    TMP DP  RH WIND       PRES   REMARKS
IDAHO FALLS    MOCLDY    28  25  88 CALM      30.13R
POCATELLO      CLOUDY    34  30  85 CALM      30.13S
REXBURG        CLOUDY    32  27  81 CALM      30.12S
$$

IDZ006-010-011-018-031-032-190300-
CENTRAL IDAHO MOUNTAINS


CITY           SKY/WX    TMP DP  RH WIND       PRES   REMARKS
MCCALL         LGT SNOW  32  31  96 S5        30.03R FOG     WCI  27
HAILEY         CLOUDY    30  28  93 CALM      30.12R
STANLEY          N/A     30  25  81 CALM      30.05S
SALMON         CLOUDY    27  21  80 CALM      30.08S
CHALLIS        CLOUDY    26  21  81 CALM      30.07R
$$

IDZ002-004-006-007-026-190300-
NORTHERN IDAHO


CITY           SKY/WX    TMP DP  RH WIND       PRES   REMARKS
LEWISTON       MOCLDY    44  36  73 SE7       29.98F
LOWELL           N/A     38  36  92 N3        30.07R
COEUR D`ALENE  CLOUDY    37  36  93 CALM      29.96S
MULLAN PASS    FOG       30  27  88 S7        29.91F VSB 3/4 WCI  23
$$


USA.gov is the U.S. government's official web portal to all federal, state and local government web resources and services.